Location: Unspecified
(34.6037°S, 0.0000°E)
Time: 06:41:52
(UTC+00:00)

ISS - Visible Passes

Search period start: 04 April 2026 00:00
Search period end: 14 April 2026 00:00
Orbit: 417 x 425 km, 51.6° (Epoch: 29 March)

Date Brightness Start Highest point End Pass type
(mag) Time Alt. Az. Time Alt. Az. Time Alt. Az.
4 Apr -1.8 04:30:26 23° S 04:31:26 27° SE 04:34:22 10° E visible
5 Apr -0.4 03:45:48 13° ESE 03:45:48 13° ESE 03:46:26 10° ESE visible
5 Apr -3.5 05:18:51 19° WSW 05:21:03 49° NW 05:24:19 10° NNE visible
6 Apr -3.4 04:34:21 61° NE 04:34:21 61° NE 04:37:12 10° NE visible
7 Apr -1.8 05:23:01 14° NW 05:23:01 14° NW 05:24:50 10° NNW visible
8 Apr -1.4 19:36:37 10° NNW 19:37:35 18° NNW 19:37:35 18° NNW visible
9 Apr -2.8 18:49:41 10° NNW 18:52:41 29° NE 18:53:01 29° ENE visible
10 Apr -1.9 18:03:15 10° NNE 18:05:27 16° NE 18:07:40 10° E visible
10 Apr -2.1 19:38:47 10° WNW 19:41:18 34° WSW 19:41:18 34° WSW visible
11 Apr -3.6 18:51:11 10° NW 18:54:34 73° SW 18:56:23 26° SE visible
12 Apr -3.6 18:03:50 10° NW 18:07:11 58° NE 18:10:33 10° SE visible
12 Apr -1.1 19:42:00 10° WSW 19:44:15 16° SSW 19:44:16 16° SSW visible
13 Apr -1.7 18:53:47 10° W 18:56:37 24° SW 18:59:02 13° SSE visible
